AL7BX-WX Weather Reports


time (UTC)temp
C
wind
direction
speed
KPH
gust
KPH
rain 1hr
cm
rain 24hr
cm
rain mn
cm
humidity
%
barometer
mb
20260830224713 28 179 17.7 37.0 0.00 0.00 0.00 32
20260830223603 28 181 14.5 35.4 0.00 0.00 0.00 31
20260830222703 28 174 16.1 37.0 0.00 0.00 0.00 30
20260830221803 28 164 17.7 33.8 0.00 0.00 0.00 29
20260830220903 29 165 17.7 38.6 0.00 0.00 0.00 28
20260830220003 29 171 19.3 38.6 0.00 0.00 0.00 30
20260830215403 30 166 17.7 38.6 0.00 0.00 0.00 29
20260830214503 30 177 16.1 30.6 0.00 0.00 0.00 28
20260830213603 30 180 16.1 27.4 0.00 0.00 0.00 31
20260830212703 30 178 17.7 38.6 0.00 0.00 0.00 30
20260830212012 29 182 17.7 35.4 0.00 0.00 0.00 30
20260830210903 28 184 17.7 35.4 0.00 0.00 0.00 32
20260830210213 28 169 17.7 43.5 0.00 0.00 0.00 31
20260830205403 29 180 19.3 41.8 0.00 0.00 0.00 31
20260830204503 29 164 17.7 40.2 0.00 0.00 0.00 31
20260830203603 28 170 14.5 40.2 0.00 0.00 0.00 32
20260830202703 28 192 14.5 37.0 0.00 0.00 0.00 31
20260830201803 29 179 16.1 33.8 0.00 0.00 0.00 31
20260830200903 29 176 16.1 37.0 0.00 0.00 0.00 31
20260830200003 28 176 17.7 35.4 0.00 0.00 0.00 31
20260830195614 29 178 17.7 37.0 0.00 0.00 0.00 32
20260830194503 29 184 12.9 30.6 0.00 0.00 0.00 32
20260830193813 28 190 16.1 35.4 0.00 0.00 0.00 33
20260830192914 28 189 14.5 32.2 0.00 0.00 0.00 32
20260830191803 28 154 16.1 30.6 0.00 0.00 0.00 33
20260830190903 28 165 17.7 33.8 0.00 0.00 0.00 33
20260830190003 28 173 17.7 33.8 0.00 0.00 0.00 34
20260830185403 28 176 17.7 37.0 0.00 0.00 0.00 32
20260830184503 27 184 20.9 43.5 0.00 0.00 0.00 33
20260830183603 27 179 19.3 41.8 0.00 0.00 0.00 34
20260830182914 27 171 16.1 30.6 0.00 0.00 0.00 34
20260830181803 27 179 17.7 40.2 0.00 0.00 0.00 35
20260830180903 27 175 16.1 35.4 0.00 0.00 0.00 36
20260830180003 27 176 14.5 33.8 0.00 0.00 0.00 37
20260830175613 27 172 12.9 25.7 0.00 0.00 0.00 38
20260830174503 27 162 16.1 30.6 0.00 0.00 0.00 38
20260830173814 26 170 17.7 33.8 0.00 0.00 0.00 38
20260830172913 26 183 16.1 37.0 0.00 0.00 0.00 39
20260830171803 26 187 16.1 32.2 0.00 0.00 0.00 40
20260830170903 26 185 14.5 30.6 0.00 0.00 0.00 40
20260830170213 26 189 16.1 30.6 0.00 0.00 0.00 40
20260830165403 26 184 14.5 30.6 0.00 0.00 0.00 40
20260830164503 25 183 12.9 29.0 0.00 0.00 0.00 42
20260830163603 25 189 11.3 25.7 0.00 0.00 0.00 43
20260830162703 25 187 16.1 25.7 0.00 0.00 0.00 44
20260830161803 25 192 11.3 27.4 0.00 0.00 0.00 44
20260830160903 25 188 12.9 24.1 0.00 0.00 0.00 45
20260830160003 24 185 11.3 24.1 0.00 0.00 0.00 46
20260830155403 24 191 9.7 22.5 0.00 0.00 0.00 47
20260830154503 23 191 9.7 20.9 0.00 0.00 0.00 48
20260830153603 23 186 8.0 17.7 0.00 0.00 0.00 49
20260830152703 23 174 8.0 19.3 0.00 0.00 0.00 49
20260830151803 23 177 8.0 16.1 0.00 0.00 0.00 50
20260830150903 23 149 3.2 8.0 0.00 0.00 0.00 50
20260830150003 23 150 3.2 8.0 0.00 0.00 0.00 52
20260830145403 22 138 4.8 14.5 0.00 0.00 0.00 51
20260830144713 22 112 6.4 16.1 0.00 0.00 0.00 52
20260830143603 21 108 6.4 11.3 0.00 0.00 0.00 53
20260830142912 21 121 4.8 11.3 0.00 0.00 0.00 54
20260830141803 20 151 4.8 11.3 0.00 0.00 0.00 56
20260830141113 20 160 6.4 11.3 0.00 0.00 0.00 57
20260830140003 20 167 6.4 17.7 0.00 0.00 0.00 57
20260830135403 20 174 4.8 12.9 0.00 0.00 0.00 57
20260830134503 20 120 4.8 14.5 0.00 0.00 0.00 57
20260830133603 20 152 3.2 16.1 0.00 0.00 0.00 58
20260830132914 19 177 1.6 8.0 0.00 0.00 0.00 58
20260830131803 19 162 3.2 8.0 0.00 0.00 0.00 59
20260830130903 18 82 1.6 8.0 0.00 0.00 0.00 60
20260830130003 18 27 0.0 3.2 0.00 0.00 0.00 60
20260830125403 18 26 0.0 4.8 0.00 0.00 0.00 60
20260830124503 18 25 0.0 4.8 0.00 0.00 0.00 59
20260830123603 18 38 3.2 8.0 0.00 0.00 0.00 57
20260830122703 20 102 3.2 6.4 0.00 0.00 0.00 56
20260830121803 20 138 1.6 6.4 0.00 0.00 0.00 55
20260830121114 20 138 3.2 6.4 0.00 0.00 0.00 54
20260830120003 20 140 3.2 6.4 0.00 0.00 0.00 53
20260830115403 20 141 3.2 8.0 0.00 0.00 0.00 53
20260830114503 20 151 4.8 11.3 0.00 0.00 0.00 52
20260830113603 20 147 4.8 9.7 0.00 0.00 0.00 52
20260830112703 20 148 6.4 16.1 0.00 0.00 0.00 52
20260830111803 20 147 4.8 9.7 0.00 0.00 0.00 52
20260830110903 20 157 3.2 8.0 0.00 0.00 0.00 52